Regional Weather Roundup
Issued by NWS Jackson, KY

Home | Current Version | Previous Version | Graphics & Text | Print | Product List | Glossary On
Versions: 1 2 3 4 5 6 7 8 9 10 11 12 13 14 15 16 17 18 19 20 21 22 23 24 25 26 27 28 29 30 31 32 33 34 35 36 37 38 39 40 41 42 43 44 45 46 47 48 49 50
000
ASUS43 KJKL 100010
RWRJKL

EAST KENTUCKY HOURLY WEATHER ROUNDUP
NATIONAL WEATHER SERVICE JACKSON KY
700 PM EST TUE FEB 09 2016

NOTE: "FAIR" INDICATES FEW OR NO CLOUDS BELOW 12,000 FEET WITH
NO SIGNIFICANT WEATHER AND/OR OBSTRUCTIONS TO VISIBILITY.

* THESE REPORTS ARE NOT UNDER NWS QUALITY CONTROL AND MAY NOT
  REPORT WEATHER SUCH AS PRECIPITATION AND FOG.

KYZ079-080-083-085-087-088-110-112-115-119-120-100100
...EASTERN KENTUCKY...

CITY           SKY/WX    TMP DP  RH WIND       PRES   REMARKS
JACKSON        CLOUDY    22  13  68 W13       29.87R WCI  10
6HR MIN TEMP:  21; 6HR MAX TEMP:  24; 6HR PCP: TRACE;

LONDON         LGT SNOW  22  16  78 W7        29.91R WCI  13
6HR MIN TEMP:  22; 6HR MAX TEMP:  23; 6HR PCP: TRACE;

SOMERSET*      LGT SNOW  23  18  80 W13       29.97R WCI  11
MONTICELLO*    FLURRIES  23  17  78 W10       29.98R WCI  12
6HR MIN TEMP:  23; 6HR MAX TEMP:  25; 6HR PCP: TRACE;

WILLIAMSBURG*  CLOUDY    23  19  86 CALM      29.93R
MIDDLESBORO*   CLOUDY    24  17  73 NW3       29.92R
6HR MIN TEMP:  23; 6HR MAX TEMP:  26;

HARLAN APT*    CLOUDY    23  18  80 SW5       29.88R WCI  17
HAZARD APT*    CLOUDY   N/A N/A N/A SW8       29.89R
BLACK MTN*       N/A     10   9  92 W1          N/A
BIG SANDY*     CLOUDY    24  16  71 W8        29.86R WCI  15
6HR MIN TEMP:  23; 6HR MAX TEMP:  24;

MOREHEAD APT*  LGT SNOW  23  18  80 W8        29.90R WCI  14
$$

KYZ035-036-041-042-044-050-067-078-099-100100
...CENTRAL KENTUCKY...

CITY           SKY/WX    TMP DP  RH WIND       PRES   REMARKS
MT STERLING*   LGT SNOW  23  19  86 W8        29.91R WCI  14
DANVILLE*      FLURRIES  23  18  80 W8        29.94R WCI  14
RICHMOND*      CLOUDY    23  18  80 W14       29.91R WCI  11
LEXINGTON      CLOUDY    22  14  71 W13G20    29.91R WCI  10
6HR MIN TEMP:  22; 6HR MAX TEMP:  24; 6HR PCP: TRACE;

$$

KYZ091>093-OHZ055-061-077-WVZ005-015-034-035-042-100100
...SOUTHERN OHIO/WEST VIRGINIA...

CITY           SKY/WX    TMP DP  RH WIND       PRES   REMARKS
COVINGTON      LGT SNOW  22  18  85 W10       29.88R FOG     WCI  11
COLUMBUS       LGT SNOW  25  18  74 W13       29.78R WCI  14
DAYTON         LGT SNOW  22  18  85 W15G23    29.83R FOG     WCI   9
WILMINGTON     MIX PCPN  22  17  81 W21       29.82R WCI   6
HUNTINGTON     FLURRIES  25  18  74 W9        29.85R WCI  15
CHARLESTON     LGT SNOW  24  19  81 W10       29.83R VSB 1   WCI  14
PINEVILLE*     LGT SNOW  22  15  75 MISG      29.84R
BECKLEY        LGT SNOW  17  11  77 W9        29.73R WCI   6
$$

VAZ002-007-008-TNZ017-027-036-066-071-100100
...SOUTHWEST VIRGINIA/EAST TENNESSEE...

CITY           SKY/WX    TMP DP  RH WIND       PRES   REMARKS
BRISTOL        FLURRIES  23  14  68 W14       29.86R WCI  11
KNOXVILLE      FLURRIES  26  21  81 W7        29.93R WCI  18
OAK RIDGE      CLOUDY    28  14  55 W7        29.95R WCI  21
CROSSVILLE     LGT SNOW  20  14  77 W15       29.91R WCI   6
NASHVILLE      LGT SNOW  24  18  77 NW8       30.05R VSB 1   WCI  15
$$

...KEY TO REMARKS...
VSB - VISIBILITY IN MILES
WCI - WIND CHILL INDEX
HX  - HEAT INDEX

$$



USA.gov is the U.S. government's official web portal to all federal, state and local government web resources and services.